Weather History for Middleton, WI

Change the Weather History Date:

Monday, January 7, 2013

  Actual Average (KMSN) Record (KMSN)
Temperature  
Mean Temperature 25 °F 19 °F  
Max Temperature 37 °F 26 °F 50 °F (2008)
Min Temperature 13 °F 11 °F -29 °F (1887)
Degree Days  
Heating Degree Days 40 46  
Month to date heating degree days 322  
Since 1 July heating degree days 3201  
Cooling Degree Days 0 0  
Month to date cooling degree days 0  
Year to date cooling degree days 0  
Moisture  
Dew Point 18 °F    
Average Humidity 68    
Maximum Humidity 84    
Minimum Humidity 51    
Precipitation  
Precipitation 0.00 in 0.04 in 0.68 in (1913)
Month to date precipitation 0.29  
Year to date precipitation 0.29  
Snow  
Snow 0.00 in 0.40 in 7.00 in (1913)
Month to date snowfall 2.8  
Since 1 July snowfall 20.4  
Snow Depth -    
Sea Level Pressure  
Sea Level Pressure 30.09 in    
Wind  
Wind Speed 7 mph (SW)    
Max Wind Speed 18 mph    
Max Gust Speed 28 mph    
Visibility 10 miles    
Events      
T = Trace of Precipitation, MM = Missing Value Source: NWS Daily Summary

Daily Weather History Graph

Daily Weather History Graph

Search for Another Location

Airport:

Trip Planner

Search our weather history database for the weather conditions in past years. The results will help you decide how hot, cold, wet, or windy it might be!

Date:

Astronomy

Jan. 07, 2013 Rise Set
Actual Time 7:29 AM CST 4:39 PM CST
Civil Twilight 6:57 AM CST 5:11 PM CST
Nautical Twilight 6:21 AM CST 5:47 PM CST
Astronomical Twilight 5:47 AM CST 6:21 PM CST
Moon 2:51 AM CST (1/7) 12:52 PM CST (1/7)
Length of Visible Light 10h 14m
Length of Day
9h 10m
Waning Crescent, 22% of the Moon is Illuminated
Jan 7
Waning Crescent
Jan 11
New
Jan 18
First Quarter
Jan 26
Full
Feb 3
Last Quarter

Hourly Weather History & Observations

Time (CST) Temp. Windchill Dew Point Humidity Pressure Visibility Wind Dir Wind Speed Gust Speed Precip Events Conditions
12:15 AM 15.4 °F - 11.3 °F 84% 30.24 in 10.0 mi Calm Calm - N/A   Clear
12:35 AM 13.6 °F - 9.1 °F 82% 30.23 in 10.0 mi Calm Calm - N/A   Clear
12:55 AM 14.5 °F - 9.7 °F 81% 30.23 in 10.0 mi Calm Calm - N/A   Clear
1:15 AM 13.6 °F 7.7 °F 9.1 °F 82% 30.23 in 10.0 mi SSW 3.5 mph - N/A   Clear
1:35 AM 15.6 °F 8.3 °F 11.3 °F 83% 30.23 in 10.0 mi SSW 4.6 mph - N/A   Clear
1:55 AM 15.8 °F 8.6 °F 10.9 °F 81% 30.23 in 10.0 mi SSW 4.6 mph - N/A   Clear
2:15 AM 16.3 °F 6.7 °F 11.1 °F 80% 30.23 in 10.0 mi SSW 6.9 mph - N/A   Clear
2:35 AM 16.2 °F 10.6 °F 10.9 °F 80% 30.22 in 10.0 mi SSW 3.5 mph - N/A   Clear
2:55 AM 16.7 °F 7.2 °F 11.7 °F 81% 30.22 in 10.0 mi SSW 6.9 mph - N/A   Clear
3:15 AM 17.4 °F 6.2 °F 12.4 °F 81% 30.22 in 10.0 mi SSW 9.2 mph - N/A   Clear
3:35 AM 16.7 °F 5.3 °F 11.8 °F 81% 30.21 in 10.0 mi SSW 9.2 mph - N/A   Clear
3:55 AM 16.7 °F 7.2 °F 11.8 °F 81% 30.21 in 10.0 mi SSW 6.9 mph - N/A   Clear
4:15 AM 16.2 °F 7.6 °F 11.3 °F 81% 30.20 in 10.0 mi SSW 5.8 mph - N/A   Clear
4:35 AM 16.7 °F 8.3 °F 11.7 °F 81% 30.19 in 10.0 mi SSW 5.8 mph - N/A   Clear
4:55 AM 18.5 °F 9.3 °F 12.4 °F 77% 30.18 in 10.0 mi SW 6.9 mph - N/A   Clear
5:15 AM 18.5 °F 7.5 °F 12.2 °F 76% 30.17 in 10.0 mi SSW 9.2 mph - N/A   Clear
5:35 AM 18.5 °F 6.8 °F 12.2 °F 76% 30.17 in 10.0 mi SSW 10.4 mph - N/A   Clear
5:55 AM 18.5 °F 7.5 °F 12.2 °F 76% 30.16 in 10.0 mi SW 9.2 mph - N/A   Clear
6:15 AM 18.0 °F 8.7 °F 11.8 °F 77% 30.15 in 10.0 mi SSW 6.9 mph - N/A   Clear
6:35 AM 18.1 °F 8.9 °F 12.2 °F 78% 30.15 in 10.0 mi South 6.9 mph - N/A   Clear
6:55 AM 19.9 °F 9.3 °F 13.1 °F 75% 30.14 in 10.0 mi SSW 9.2 mph - N/A   Clear
7:15 AM 21.9 °F 11.0 °F 14.5 °F 73% 30.13 in 10.0 mi SSW 10.4 mph - N/A   Clear
7:35 AM 22.8 °F 9.4 °F 14.7 °F 71% 30.13 in 10.0 mi SSW 16.1 mph - N/A   Clear
7:55 AM 23.5 °F 13.0 °F 15.3 °F 71% 30.13 in 10.0 mi SSW 10.4 mph - N/A   Clear
8:15 AM 24.8 °F 14.6 °F 15.6 °F 68% 30.14 in 10.0 mi SSW 10.4 mph - N/A   Clear
8:35 AM 25.7 °F 14.6 °F 16.5 °F 68% 30.14 in 10.0 mi SSW 12.7 mph 18.4 mph N/A   Clear
8:55 AM 26.4 °F 16.0 °F 16.9 °F 67% 30.14 in 10.0 mi SSW 11.5 mph - N/A   Clear
9:15 AM 27.5 °F 16.3 °F 16.9 °F 64% 30.12 in 10.0 mi SSW 13.8 mph - N/A   Clear
9:35 AM 28.6 °F 18.2 °F 16.9 °F 62% 30.12 in 10.0 mi SSW 12.7 mph 17.3 mph N/A   Clear
9:55 AM 29.7 °F 20.1 °F 16.7 °F 59% 30.12 in 10.0 mi SSW 11.5 mph 18.4 mph N/A   Clear
10:15 AM 30.4 °F 21.0 °F 16.7 °F 57% 30.10 in 10.0 mi SW 11.5 mph 18.4 mph N/A   Clear
10:35 AM 32.0 °F 20.8 °F 16.5 °F 53% 30.08 in 10.0 mi SSW 17.3 mph 27.6 mph N/A   Clear
10:55 AM 33.4 °F 25.4 °F 16.9 °F 51% 30.09 in 10.0 mi SW 10.4 mph 19.6 mph N/A   Clear
11:15 AM 33.4 °F 23.9 °F 17.4 °F 52% 30.06 in 10.0 mi SW 13.8 mph 25.3 mph N/A   Clear
11:35 AM 33.8 °F 22.8 °F 17.8 °F 52% 30.04 in 10.0 mi SW 18.4 mph 27.6 mph N/A   Clear
11:55 AM 34.7 °F 25.9 °F 18.7 °F 52% 30.03 in 10.0 mi SSW 12.7 mph 17.3 mph N/A   Clear
12:15 PM 35.6 °F 25.9 °F 19.0 °F 51% 30.01 in 10.0 mi SSW 16.1 mph 24.2 mph N/A   Clear
12:35 PM 35.6 °F 26.2 °F 19.4 °F 52% 30.02 in 10.0 mi SW 15.0 mph 21.9 mph N/A   Clear
12:55 PM 36.5 °F 27.8 °F 20.1 °F 52% 30.02 in 10.0 mi SW 13.8 mph 19.6 mph N/A   Clear
1:15 PM 36.0 °F 27.1 °F 20.8 °F 54% 30.01 in 10.0 mi SW 13.8 mph 20.7 mph N/A   Clear
1:35 PM 36.5 °F 27.8 °F 21.0 °F 54% 30.01 in 10.0 mi SSW 13.8 mph 23.0 mph N/A   Clear
1:55 PM 36.7 °F 27.6 °F 21.4 °F 54% 30.00 in 10.0 mi SW 15.0 mph 20.7 mph N/A   Clear
2:15 PM 37.4 °F 29.3 °F 21.9 °F 54% 30.01 in 10.0 mi SSW 12.7 mph - N/A   Clear
2:35 PM 37.6 °F 30.5 °F 22.3 °F 54% 30.01 in 10.0 mi SW 10.4 mph 16.1 mph N/A   Clear
2:55 PM 37.0 °F 30.4 °F 22.5 °F 56% 30.01 in 10.0 mi SW 9.2 mph 17.3 mph N/A   Clear
3:15 PM 36.9 °F 30.1 °F 22.6 °F 56% 30.02 in 10.0 mi SW 9.2 mph - N/A   Clear
3:35 PM 36.7 °F 29.4 °F 22.8 °F 57% 30.01 in 10.0 mi SW 10.4 mph 17.3 mph N/A   Clear
3:55 PM 36.5 °F 29.2 °F 23.0 °F 58% 30.01 in 10.0 mi SSW 10.4 mph - N/A   Clear
4:15 PM 35.8 °F 30.9 °F 22.8 °F 59% 30.02 in 10.0 mi SW 5.8 mph - N/A   Clear
4:35 PM 35.2 °F 31.2 °F 23.0 °F 61% 30.02 in 10.0 mi SSW 4.6 mph - N/A   Clear
4:55 PM 34.7 °F 28.8 °F 23.0 °F 62% 30.02 in 10.0 mi SSW 6.9 mph - N/A   Clear
5:15 PM 34.7 °F 30.6 °F 23.0 °F 62% 30.02 in 10.0 mi SSW 4.6 mph - N/A   Clear
5:35 PM 34.3 °F 27.7 °F 23.2 °F 64% 30.02 in 10.0 mi SSW 8.1 mph - N/A   Clear
6:15 PM 34.0 °F 28.0 °F 23.2 °F 65% 30.02 in 10.0 mi SSW 6.9 mph - N/A   Clear
6:35 PM 33.6 °F 26.8 °F 23.2 °F 66% 30.02 in 10.0 mi SSW 8.1 mph - N/A   Clear
6:55 PM 33.4 °F 26.6 °F 23.2 °F 66% 30.02 in 10.0 mi SSW 8.1 mph - N/A   Clear
7:15 PM 32.9 °F 26.7 °F 23.2 °F 67% 30.02 in 10.0 mi SSW 6.9 mph - N/A   Clear
7:35 PM 32.7 °F 25.7 °F 23.4 °F 68% 30.02 in 10.0 mi SW 8.1 mph - N/A   Clear
7:55 PM 32.9 °F 25.9 °F 23.9 °F 69% 30.02 in 10.0 mi SSW 8.1 mph - N/A   Clear
8:15 PM 33.1 °F 25.5 °F 23.9 °F 69% 30.02 in 10.0 mi SSW 9.2 mph - N/A   Clear
8:35 PM 33.1 °F 25.5 °F 24.1 °F 70% 30.02 in 10.0 mi SSW 9.2 mph - N/A   Clear
8:55 PM 32.9 °F 25.3 °F 24.3 °F 71% 30.01 in 10.0 mi SSW 9.2 mph - N/A   Clear
9:15 PM 32.5 °F 26.2 °F 24.3 °F 72% 30.02 in 10.0 mi SW 6.9 mph - N/A   Clear
9:35 PM 32.9 °F 25.9 °F 24.6 °F 72% 30.03 in 10.0 mi SW 8.1 mph - N/A   Clear
9:55 PM 33.4 °F 26.6 °F 24.8 °F 71% 30.02 in 10.0 mi SW 8.1 mph - N/A   Clear
10:15 PM 33.4 °F 26.6 °F 24.8 °F 71% 30.02 in 10.0 mi WSW 8.1 mph - N/A   Clear
10:35 PM 33.8 °F 27.0 °F 24.8 °F 70% 30.02 in 10.0 mi SW 8.1 mph - N/A   Clear
10:55 PM 33.8 °F 27.7 °F 25.0 °F 70% 30.02 in 10.0 mi SW 6.9 mph - N/A   Clear
11:15 PM 33.6 °F 28.4 °F 25.0 °F 71% 30.02 in 10.0 mi WSW 5.8 mph - N/A   Clear
11:35 PM 32.9 °F 25.9 °F 24.8 °F 72% 30.02 in 10.0 mi WSW 8.1 mph - N/A   Clear
11:55 PM 32.9 °F 26.7 °F 24.8 °F 72% 30.03 in 10.0 mi WSW 6.9 mph - N/A   Clear